When you browse on this site, cookies collect data to enhance your experience and personalize the content and advertising you see.
Visit our Privacy Policy to learn more. By continuing to use the site, you agree to this use of cookies and data.
  • In Lithuania
  • List of Countries
  • For 7 days
  • Water Temperature
  • Satellite Maps
  • Weather Map
  • Weather Widgets
  • user-avatar
    Login

    Hourly Weather Grabovcy

    Today, 19 February, Tuesday

    Time Temperature Precipitation Wind Pressure Humidity
    00:00 +2°C° 0 mm 2 mps 752 mmHg 92%
    01:00 +1°C° 0 mm 3 mps 752 mmHg 92%
    02:00 +1°C° 0 mm 3 mps 752 mmHg 92%
    03:00 +1°C° 0 mm 3 mps 751 mmHg 92%
    04:00 +1°C° 0 mm 3 mps 751 mmHg 92%
    05:00 0°C° 0 mm 4 mps 750 mmHg 92%
    06:00 0°C° 0 mm 4 mps 750 mmHg 93%
    07:00 0°C° 0 mm 4 mps 750 mmHg 94%
    08:00 0°C° 0 mm 3 mps 749 mmHg 95%
    09:00 0°C° 0 mm 4 mps 749 mmHg 89%
    10:00 +1°C° 0 mm 4 mps 748 mmHg 84%
    11:00 +4°C° 0 mm 4 mps 748 mmHg 78%
    12:00 +5°C° 0 mm 5 mps 747 mmHg 71%
    13:00 +6°C° 0 mm 5 mps 747 mmHg 64%
    14:00 +10°C° 0 mm 4 mps 746 mmHg 57%
    15:00 +10°C° 0 mm 4 mps 746 mmHg 58%
    16:00 +8°C° 0 mm 4 mps 745 mmHg 59%
    17:00 +8°C° 0 mm 4 mps 745 mmHg 60%
    18:00 +7°C° 0 mm 4 mps 745 mmHg 64%
    19:00 +6°C° 0 mm 4 mps 745 mmHg 68%
    20:00 +5°C° 0 mm 4 mps 745 mmHg 72%
    21:00 +5°C° 0 mm 4 mps 745 mmHg 76%
    22:00 +4°C° 0 mm 4 mps 745 mmHg 80%
    23:00 +4°C° 0 mm 4 mps 745 mmHg 84%

    Tomorrow, 20 February, Wednesday

    Time Temperature Precipitation Wind Pressure Humidity
    00:00 +4°C° 0.2 mm 4 mps 745 mmHg 87%
    01:00 +4°C° 0.2 mm 4 mps 745 mmHg 90%
    02:00 +4°C° 0.2 mm 4 mps 745 mmHg 93%
    03:00 +3°C° 0 mm 4 mps 745 mmHg 93%
    04:00 +3°C° 0 mm 4 mps 745 mmHg 92%
    05:00 +1°C° 0 mm 5 mps 745 mmHg 92%
    06:00 +1°C° 0 mm 5 mps 745 mmHg 91%
    07:00 +1°C° 0 mm 6 mps 745 mmHg 90%
    08:00 +1°C° 0 mm 6 mps 745 mmHg 89%
    09:00 +2°C° 0 mm 6 mps 746 mmHg 84%
    10:00 +2°C° 0 mm 7 mps 746 mmHg 78%
    11:00 +3°C° 0 mm 7 mps 746 mmHg 72%
    12:00 +3°C° 0.1 mm 7 mps 746 mmHg 69%
    13:00 +3°C° 0.1 mm 7 mps 746 mmHg 66%
    14:00 +4°C° 0.1 mm 8 mps 746 mmHg 63%
    15:00 +4°C° 0 mm 7 mps 746 mmHg 63%
    16:00 +3°C° 0 mm 7 mps 747 mmHg 64%
    17:00 +3°C° 0 mm 7 mps 747 mmHg 64%
    18:00 +3°C° 0 mm 7 mps 747 mmHg 67%
    19:00 +3°C° 0 mm 7 mps 747 mmHg 69%
    20:00 +2°C° 0 mm 7 mps 748 mmHg 72%
    21:00 +2°C° 0 mm 7 mps 748 mmHg 74%
    22:00 +2°C° 0 mm 7 mps 748 mmHg 75%
    23:00 +1°C° 0 mm 6 mps 749 mmHg 77%

    Day after tomorrow, 21 February, Thursday

    Time Temperature Precipitation Wind Pressure Humidity
    00:00 +1°C° 0 mm 6 mps 749 mmHg 77%
    01:00 0°C° 0 mm 5 mps 750 mmHg 77%
    02:00 -1°C° 0 mm 4 mps 750 mmHg 77%
    03:00 -1°C° 0 mm 4 mps 750 mmHg 75%
    04:00 -2°C° 0 mm 4 mps 750 mmHg 73%
    05:00 -2°C° 0 mm 4 mps 750 mmHg 71%
    06:00 -2°C° 0 mm 4 mps 750 mmHg 70%
    07:00 -2°C° 0 mm 4 mps 750 mmHg 69%
    08:00 -1°C° 0 mm 3 mps 751 mmHg 68%
    09:00 0°C° 0 mm 3 mps 751 mmHg 66%
    10:00 +1°C° 0 mm 3 mps 751 mmHg 64%
    11:00 +1°C° 0 mm 3 mps 751 mmHg 62%
    12:00 +2°C° 0.1 mm 2 mps 750 mmHg 65%
    13:00 +3°C° 0.1 mm 2 mps 750 mmHg 69%
    14:00 +4°C° 0.1 mm 1 mps 750 mmHg 73%
    15:00 +3°C° 0.5 mm 1 mps 749 mmHg 77%
    16:00 +3°C° 0.5 mm 1 mps 749 mmHg 82%
    17:00 +1°C° 0.5 mm 2 mps 748 mmHg 86%
    18:00 +1°C° 0.4 mm 2 mps 748 mmHg 88%
    19:00 +1°C° 0.4 mm 2 mps 748 mmHg 90%
    20:00 -1°C° 0.4 mm 3 mps 748 mmHg 92%
    21:00 -1°C° 0.2 mm 3 mps 748 mmHg 91%
    22:00 -3°C° 0.2 mm 4 mps 749 mmHg 90%
    23:00 -3°C° 0.2 mm 4 mps 749 mmHg 89%

    22 February, Friday

    Time Temperature Precipitation Wind Pressure Humidity
    00:00 -3°C° 0.4 mm 4 mps 749 mmHg 88%
    01:00 -4°C° 0.4 mm 4 mps 750 mmHg 86%
    02:00 -5°C° 0.4 mm 5 mps 750 mmHg 85%
    03:00 -5°C° 0.1 mm 5 mps 751 mmHg 82%
    04:00 -5°C° 0.1 mm 5 mps 752 mmHg 78%
    05:00 -5°C° 0.1 mm 4 mps 752 mmHg 75%
    06:00 -6°C° 0 mm 5 mps 754 mmHg 73%
    07:00 -7°C° 0 mm 5 mps 755 mmHg 72%
    08:00 -9°C° 0 mm 6 mps 756 mmHg 71%
    09:00 -9°C° 0 mm 6 mps 757 mmHg 66%
    10:00 -9°C° 0 mm 6 mps 758 mmHg 62%
    11:00 -8°C° 0 mm 6 mps 759 mmHg 58%
    12:00 -8°C° 0 mm 6 mps 760 mmHg 55%
    13:00 -6°C° 0 mm 6 mps 760 mmHg 52%
    14:00 -6°C° 0 mm 5 mps 761 mmHg 49%
    15:00 -6°C° 0 mm 5 mps 761 mmHg 49%
    16:00 -6°C° 0 mm 5 mps 762 mmHg 50%
    17:00 -5°C° 0 mm 4 mps 762 mmHg 50%
    18:00 -7°C° 0 mm 4 mps 762 mmHg 51%
    19:00 -7°C° 0 mm 4 mps 763 mmHg 53%
    20:00 -7°C° 0 mm 4 mps 763 mmHg 54%
    21:00 -7°C° 0 mm 4 mps 763 mmHg 54%
    22:00 -7°C° 0 mm 4 mps 763 mmHg 54%
    23:00 -8°C° 0 mm 4 mps 764 mmHg 54%

    23 February, Saturday

    Time Temperature Precipitation Wind Pressure Humidity
    00:00 -8°C° 0 mm 4 mps 764 mmHg 55%
    01:00 -8°C° 0 mm 4 mps 764 mmHg 56%
    02:00 -8°C° 0 mm 4 mps 764 mmHg 57%
    03:00 -7°C° 0 mm 3 mps 764 mmHg 60%
    04:00 -8°C° 0 mm 3 mps 764 mmHg 62%
    05:00 -8°C° 0 mm 3 mps 764 mmHg 65%
    06:00 -8°C° 0 mm 3 mps 764 mmHg 67%
    07:00 -8°C° 0 mm 3 mps 764 mmHg 69%
    08:00 -9°C° 0 mm 3 mps 764 mmHg 71%
    09:00 -8°C° 0 mm 3 mps 764 mmHg 67%
    10:00 -6°C° 0 mm 2 mps 764 mmHg 62%
    11:00 -5°C° 0 mm 2 mps 764 mmHg 58%
    12:00 -5°C° 0 mm 2 mps 764 mmHg 56%
    13:00 -5°C° 0 mm 3 mps 763 mmHg 53%
    14:00 -4°C° 0 mm 3 mps 763 mmHg 51%
    15:00 -3°C° 0 mm 2 mps 763 mmHg 53%
    16:00 -3°C° 0 mm 2 mps 762 mmHg 54%
    17:00 -3°C° 0 mm 2 mps 762 mmHg 56%
    18:00 -3°C° 0 mm 2 mps 762 mmHg 59%
    19:00 -4°C° 0 mm 2 mps 762 mmHg 61%
    20:00 -4°C° 0 mm 2 mps 762 mmHg 63%
    21:00 -4°C° 0 mm 2 mps 761 mmHg 65%
    22:00 -4°C° 0 mm 2 mps 761 mmHg 67%
    23:00 -2°C° 0 mm 1 mps 761 mmHg 69%

    24 February, Sunday

    Time Temperature Precipitation Wind Pressure Humidity
    00:00 -2°C° 0.1 mm 1 mps 761 mmHg 72%
    01:00 -2°C° 0.1 mm 1 mps 760 mmHg 76%
    02:00 -2°C° 0.1 mm 1 mps 760 mmHg 79%
    03:00 -2°C° 0 mm 1 mps 760 mmHg 81%
    04:00 -2°C° 0 mm 1 mps 760 mmHg 82%
    05:00 -2°C° 0 mm 1 mps 760 mmHg 84%
    06:00 -2°C° 0 mm 1 mps 760 mmHg 86%
    07:00 -2°C° 0 mm 1 mps 760 mmHg 87%
    08:00 -3°C° 0 mm 0 mps 760 mmHg 89%
    09:00 -1°C° 0 mm 1 mps 760 mmHg 86%
    10:00 0°C° 0 mm 1 mps 761 mmHg 84%
    11:00 0°C° 0 mm 1 mps 761 mmHg 81%
    12:00 +1°C° 0 mm 1 mps 761 mmHg 79%
    13:00 +1°C° 0 mm 1 mps 761 mmHg 77%
    14:00 +2°C° 0 mm 1 mps 761 mmHg 75%
    15:00 +2°C° 0 mm 1 mps 761 mmHg 77%
    16:00 +1°C° 0 mm 2 mps 762 mmHg 79%
    17:00 +1°C° 0 mm 2 mps 762 mmHg 80%
    18:00 -1°C° 0 mm 2 mps 762 mmHg 82%
    19:00 -1°C° 0 mm 2 mps 762 mmHg 84%
    20:00 -1°C° 0 mm 2 mps 762 mmHg 86%
    21:00 -1°C° 0 mm 2 mps 762 mmHg 86%
    22:00 -2°C° 0 mm 2 mps 763 mmHg 87%
    23:00 -2°C° 0 mm 2 mps 763 mmHg 87%
    Show more